Location: �A�n Sefra
(34.9681°N, 0.4346°E)
Time: 20:45:09
(UTC+00:00)

COSMO-SKYMED 1 - Pass Details

Date: 21 October 2019
Orbit: 621 x 623 km, 97.9° (Epoch: 21 November)

Event Time Altitude Azimuth Distance (km) Brightness Sun altitude
Rises 18:29:30 0° 3° (N) 2,907 6.0 -15.7°
Reaches altitude 10° 18:31:47 10° 356° (N) 1,996 5.2 -16.1°
Maximum altitude 18:35:50 39° 287° (WNW) 932 4.0 -17.0°
Drops below altitude 10° 18:39:51 10° 218° (SW) 1,983 5.7 -17.8°
Sets 18:42:07 0° 211° (SSW) 2,885 6.4 -18.2°
